Weather History for Jackson, WY

Change the Weather History Date:

Friday, November 9, 2012

  Actual Average Record
Temperature  
Mean Temperature 32 °F -  
Max Temperature 37 °F 39 °F 58 °F (1978)
Min Temperature 24 °F 17 °F -2 °F (1977)
Degree Days  
Heating Degree Days 34    
Moisture  
Dew Point 30 °F    
Average Humidity 91    
Maximum Humidity 100    
Minimum Humidity 70    
Precipitation  
Precipitation 0.03 in - - ()
Sea Level Pressure  
Sea Level Pressure 29.57 in    
Wind  
Wind Speed 5 mph (SSE)    
Max Wind Speed 18 mph    
Max Gust Speed 30 mph    
Visibility 6 miles    
Events Snow    
Averages and records for this station are not official NWS values.
T = Trace of Precipitation, MM = Missing Value Source: NWS Daily Summary

Daily Weather History Graph

Daily Weather History Graph

Search for Another Location

Airport:

Trip Planner

Search our weather history database for the weather conditions in past years. The results will help you decide how hot, cold, wet, or windy it might be!

Date:

Astronomy

Nov. 09, 2012 Rise Set
Actual Time 7:09 AM MST 5:03 PM MST
Civil Twilight 6:39 AM MST 5:33 PM MST
Nautical Twilight 6:04 AM MST 6:08 PM MST
Astronomical Twilight 5:31 AM MST 6:41 PM MST
Moon 2:04 AM MST (11/9) 2:25 PM MST (11/9)
Length of Visible Light 10h 54m
Length of Day
9h 53m
Waning Crescent, 22% of the Moon is Illuminated
Nov 9
Waning Crescent
Nov 13
New
Nov 20
First Quarter
Nov 28
Full
Dec 6
Last Quarter

Hourly Weather History & Observations

Time (MST) Temp. Windchill Dew Point Humidity Pressure Visibility Wind Dir Wind Speed Gust Speed Precip Events Conditions
12:15 AM 37.4 °F - 33.8 °F 87% 29.58 in 10.0 mi Calm Calm - N/A   Overcast
12:35 AM 37.4 °F - 33.8 °F 87% 29.57 in 10.0 mi Calm Calm - N/A   Overcast
12:55 AM 35.6 °F - 32.0 °F 87% 29.57 in 10.0 mi Calm Calm - N/A   Overcast
1:15 AM 37.4 °F 34.9 °F 32.0 °F 81% 29.56 in 10.0 mi ESE 3.5 mph - N/A   Overcast
1:35 AM 37.4 °F - 32.0 °F 81% 29.55 in 10.0 mi Calm Calm - N/A   Mostly Cloudy
1:55 AM 35.6 °F 31.7 °F 30.2 °F 81% 29.55 in 10.0 mi ESE 4.6 mph - N/A   Partly Cloudy
2:15 AM 35.6 °F 31.7 °F 28.4 °F 75% 29.55 in 10.0 mi SE 4.6 mph - N/A   Scattered Clouds
2:35 AM 33.8 °F 28.6 °F 28.4 °F 81% 29.54 in 10.0 mi ESE 5.8 mph - N/A   Scattered Clouds
3:15 AM 33.8 °F 29.6 °F 28.4 °F 81% 29.53 in 10.0 mi WSW 4.6 mph - N/A   Overcast
3:35 AM 35.6 °F 32.8 °F 30.2 °F 81% 29.52 in 10.0 mi SW 3.5 mph - N/A   Overcast
3:55 AM 35.6 °F 32.8 °F 30.2 °F 81% 29.51 in 10.0 mi ESE 3.5 mph - N/A   Overcast
4:35 AM 33.8 °F 22.8 °F 32.0 °F 93% 29.54 in 3.0 mi West 18.4 mph 29.9 mph N/A   Overcast
4:55 AM 33.8 °F 25.8 °F 32.0 °F 93% 29.56 in 2.5 mi WSW 10.4 mph 20.7 mph N/A   Overcast
5:15 AM 33.8 °F 27.0 °F 33.8 °F 100% 29.57 in 2.5 mi SSE 8.1 mph - N/A   Overcast
5:35 AM 32.0 °F 23.0 °F 32.0 °F 100% 29.59 in 2.0 mi SSE 11.5 mph - 0.01 in   Overcast
5:55 AM 32.0 °F 22.5 °F 32.0 °F 100% 29.59 in 1.8 mi SSE 12.7 mph 17.3 mph 0.01 in   Overcast
6:15 AM 30.2 °F 20.2 °F 30.2 °F 100% 29.59 in 10.0 mi SE 12.7 mph 18.4 mph N/A   Overcast
6:35 AM 32.0 °F 22.5 °F 30.2 °F 93% 29.61 in 10.0 mi SSE 12.7 mph - N/A   Overcast
6:51 AM 32.0 °F 21.2 °F 30.2 °F 93% 29.61 in 9.0 mi SSE 16.1 mph - N/A   Overcast
7:51 AM 30.2 °F 24.3 °F 30.2 °F 100% 29.62 in 9.0 mi SSE 5.8 mph - N/A   Overcast
8:51 AM 32.0 °F 23.0 °F 30.2 °F 93% 29.62 in 6.0 mi South 11.5 mph - N/A Snow Light Snow Showers
9:39 AM 33.8 °F 27.0 °F 30.2 °F 87% 29.62 in 2.5 mi South 8.1 mph - N/A Snow Light Snow
9:52 AM 33.8 °F 27.0 °F 30.2 °F 87% 29.62 in 6.0 mi SSE 8.1 mph - N/A Snow Light Snow
10:51 AM 33.8 °F - 30.2 °F 87% 29.61 in 9.0 mi Calm Calm - N/A   Mostly Cloudy
11:55 AM 33.8 °F 28.6 °F 30.2 °F 87% 29.60 in 8.0 mi SSW 5.8 mph - N/A Snow Snow
12:55 PM 35.6 °F 28.6 °F 30.2 °F 81% 29.58 in 8.0 mi South 9.2 mph - N/A Snow Snow
1:52 PM 37.4 °F 31.4 °F 30.2 °F 75% 29.57 in 10.0 mi South 8.1 mph - N/A Snow Snow
2:51 PM 37.4 °F 33.8 °F 28.4 °F 70% 29.55 in 10.0 mi South 4.6 mph - N/A Snow Snow
3:42 PM 33.8 °F 24.8 °F 30.2 °F 87% 29.55 in 6.0 mi North 12.7 mph 21.9 mph N/A Snow Light Snow
3:59 PM 32.0 °F 22.5 °F 30.2 °F 93% 29.56 in 4.0 mi North 12.7 mph - N/A Snow Light Snow
4:51 PM 30.2 °F 21.9 °F 30.2 °F 100% 29.56 in 3.0 mi North 9.2 mph - N/A Snow Light Snow
5:51 PM 30.2 °F 21.9 °F 28.4 °F 93% 29.55 in 6.0 mi North 9.2 mph - N/A Snow Light Snow
6:51 PM 28.4 °F 20.4 °F 28.4 °F 100% 29.57 in 3.0 mi North 8.1 mph - N/A Snow Light Snow
7:51 PM 28.4 °F 24.6 °F 28.4 °F 100% 29.56 in 3.0 mi NNW 3.5 mph - N/A Snow Light Snow
8:51 PM 28.4 °F - 28.4 °F 100% 29.57 in 4.0 mi Calm Calm - N/A Snow Light Snow
8:55 PM 28.4 °F - 28.4 °F 100% 29.57 in 3.0 mi Calm Calm - 0.01 in   Overcast
9:15 PM 28.4 °F - 28.4 °F 100% 29.59 in 3.0 mi Calm Calm - N/A   Overcast
9:35 PM 28.4 °F - 28.4 °F 100% 29.59 in 2.5 mi Calm Calm - N/A   Overcast
9:55 PM 28.4 °F - 28.4 °F 100% 29.57 in 3.0 mi Calm Calm - 0.01 in   Overcast
10:35 PM 28.4 °F - 26.6 °F 93% 29.59 in 3.0 mi Calm Calm - N/A   Mostly Cloudy
10:55 PM 28.4 °F - 26.6 °F 93% 29.58 in 4.0 mi Calm Calm - N/A   Overcast
11:15 PM 26.6 °F - 24.8 °F 93% 29.58 in 3.0 mi Calm Calm - N/A   Mostly Cloudy
11:35 PM 26.6 °F 18.2 °F 24.8 °F 93% 29.59 in 7.0 mi South 8.1 mph - N/A   Overcast
11:55 PM 24.8 °F 14.0 °F 24.8 °F 100% 29.59 in 7.0 mi South 11.5 mph - N/A   Overcast